This is the latest recevied weather packets stored in our database for station/object PD2BVG. If no packets are shown the sender has not sent any weather packets the latest 1 day(s).
| Time | Temp. | Humidity | Pressure | Rain* | Wind** | Luminosity | Snow |
|---|---|---|---|---|---|---|---|
| 1777964342 | 11.11° C | 89% | 1012.1 hPa | 0 mm | 3.13 m/s, 28° | 150 W/m² | - |
| 1777964283 | 11.11° C | 89% | 1012.2 hPa | 0 mm | 2.68 m/s, 44° | 181 W/m² | - |
| 1777964222 | 11.11° C | 89% | 1012.2 hPa | 0 mm | 2.24 m/s, 3° | 148 W/m² | - |
| 1777964162 | 11.11° C | 89% | 1012.2 hPa | 0 mm | 2.24 m/s, 0° | 127 W/m² | - |
| 1777964102 | 11.11° C | 89% | 1012.1 hPa | 0 mm | 3.13 m/s, 355° | 127 W/m² | - |
| 1777964043 | 11.11° C | 89% | 1012.1 hPa | 0 mm | 2.68 m/s, 338° | 113 W/m² | - |
| 1777963985 | 11.11° C | 89% | 1012.1 hPa | 0 mm | 2.24 m/s, 24° | 111 W/m² | - |
| 1777963924 | 11.11° C | 89% | 1012.1 hPa | 0 mm | 2.24 m/s, 0° | 116 W/m² | - |
| 1777963863 | 11.11° C | 90% | 1012.1 hPa | 0 mm | 2.24 m/s, 327° | 118 W/m² | - |
| 1777963806 | 11.11° C | 90% | 1012.1 hPa | 0 mm | 2.24 m/s, 0° | 118 W/m² | - |
| 1777963744 | 11.11° C | 90% | 1012.2 hPa | 0 mm | 2.68 m/s, 0° | 118 W/m² | - |
| 1777963682 | 10.56° C | 90% | 1012.2 hPa | 0 mm | 3.13 m/s, 0° | 120 W/m² | - |
| 1777963622 | 10.56° C | 90% | 1012.2 hPa | 0 mm | 4.02 m/s, 18° | 120 W/m² | - |
| 1777963562 | 10.56° C | 90% | 1012.2 hPa | 0 mm | 3.58 m/s, 327° | 109 W/m² | - |
| 1777963503 | 10.56° C | 90% | 1012.1 hPa | 0 mm | 2.68 m/s, 0° | 95 W/m² | - |
| 1777963441 | 10.56° C | 90% | 1012.3 hPa | 0 mm | 2.68 m/s, 0° | 83 W/m² | - |
| 1777963382 | 10.56° C | 90% | 1012.3 hPa | 0 mm | 1.79 m/s, 3° | 78 W/m² | - |
| 1777963322 | 10.56° C | 90% | 1012.2 hPa | 0 mm | 1.79 m/s, 0° | 79 W/m² | - |
| 1777963263 | 10.56° C | 90% | 1012.3 hPa | 0 mm | 2.24 m/s, 0° | 81 W/m² | - |
| 1777963202 | 10.56° C | 90% | 1012.3 hPa | 0 mm | 3.13 m/s, 344° | 81 W/m² | - |
| 1777963143 | 10.56° C | 90% | 1012.3 hPa | 0 mm | 3.13 m/s, 0° | 78 W/m² | - |
| 1777963082 | 10.56° C | 90% | 1012.3 hPa | 0 mm | 2.68 m/s, 347° | 74 W/m² | - |
| 1777963022 | 10.56° C | 90% | 1012.3 hPa | 0 mm | 3.13 m/s, 351° | 74 W/m² | - |
| 1777962963 | 10.56° C | 90% | 1012.3 hPa | 0 mm | 2.68 m/s, 355° | 79 W/m² | - |
| 1777962902 | 10.56° C | 90% | 1012.3 hPa | 0 mm | 1.79 m/s, 0° | 70 W/m² | - |
* Rain latest hour (hover to see other rain measurements)
** Current wind speed in m/s (hover to see current wind gust speed)